www.pogodaiklimat.ru

Погода и климат >> Архив погоды >> Франция >> Истр


ПОГОДА в Истре

  • Прогноз погоды в Истре
  • Монитор погоды в Истре

АРХИВ ПОГОДЫ в Истре

Время (UTC), дата Ветер
(напр.,м/с)
 
Видим.   Явления Облачность Т
(С)
Тd
(С)
f
(%)
Тe
(С)
Тes
(С)
Комфортность P
(гПа)
Po
(гПа)
Тmin
(С)
Tmax
(С)
R
(мм)
R24
(мм)
S
(см)
19 15.09 С 1-2
{2}
40 км 10/10
[]
+23.8 +16.6 64 +27 +27 жарко 1021.2 1018.4
20 15.09 С 1-2
{2}
45 км 9/9
[]
+23.2 +15.3 61 +27 +27 душно 1021.3 1018.5
21 15.09 З 1-1
{2}
40 км 8/0
[]
+21.7 +16.0 70 +25 +25 комфорт 1021.4 1018.6
22 15.09 СЗ 1-2
{2}
40 км н/о +21.7 +15.8 69 +25 +25 комфорт 1021.2 1018.4
23 15.09 штиль 0-1
{2}
35 км 8/8
[]
+20.8 +15.8 73 +24 +24 комфорт 1021.0 1018.2
00 16.09 В 1-1
{2}
35 км 9/0
[]
+21.3 +16.0 72 +25 +25 комфорт 1020.9 1018.1
01 16.09 Ю 1-2
{2}
30 км 10/10
[]
+20.8 +15.8 73 +25 +25 комфорт 1020.5 1017.7
02 16.09 штиль 0-1
{1}
28 км н/о +20.2 +16.6 80 +23 +23 комфорт 1020.4 1017.6
03 16.09 С 1-1
{2}
19 км н/о +19.3 +15.8 80 +22 +22 комфорт 1020.1 1017.3
04 16.09 С 2-2
{2}
16 км н/о +18.6 +15.7 83 +20 +20 1019.9 1017.1
05 16.09 С 1-2
{2}
19 км н/о +18.2 +15.4 84 +20 +20 1020.0 1017.2
06 16.09 СВ 2
{4}
12 км н/о +18.2 +15.6 85 +19 +19 1020.2 1017.4 +17.9 +25.0
07 16.09 СВ 2-2
{2}
2100 м дымка н/о +21.2 +16.4 74 +25 +25 комфорт 1020.4 1017.6
08 16.09 СВ 2-2
{2}
29 км н/о +24.4 +15.9 59 +28 +28 душно 1020.3 1017.5
09 16.09 СВ 1-2
{2}
19 км н/о +26.8 +16.1 52 +30 +30 душно 1020.0 1017.2
10 16.09 СВ 1-3
{3}
35 км н/о +28.9 +13.9 40 +31 +31 жарко 1019.4 1016.7
11 16.09 СЗ 1-2
{2}
19 км н/о +30.6 +14.2 37 +32 +32 жарко 1018.8 1016.1
12 16.09 ЮЗ 2-3
{3}
45 км н/о +31.8 +14.4 35 +34 +34 душно 1018.1 1015.4
13 16.09 ЮЗ 2-3
{3}
40 км н/о +31.5 +14.6 36 +33 +33 жарко 1017.6 1014.9
14 16.09 ЮЗ 3-5
{5}
30 км н/о +30.8 +16.4 42 +34 +34 очень
душно
1017.2 1014.5
15 16.09 Ю 4-5
{5}
29 км н/о +28.0 +17.2 52 +32 +32 душно 1017.3 1014.6
16 16.09 ЮЗ 3-3
{4}
30 км н/о +27.1 +16.1 51 +30 +30 душно 1017.2 1014.4
17 16.09 ЮЗ 1-2
{3}
60 км н/о +26.3 +15.4 51 +29 +29 жарко 1017.0 1014.2
18 16.09 ЮЗ 1
{4}
55 км н/о +24.1 +16.4 62 +28 +28 душно 1017.2 1014.4 +18.2 +32.3
19 16.09 ЮЗ 1-1
{2}
40 км н/о +22.6 +17.3 72 +27 +27 душно 1017.7 1014.9
20 16.09 ЮВ 1-1
{1}
26 км н/о +21.8 +18.6 82 +27 +27 душно 1017.8 1015.0
21 16.09 ЮВ 1-1
{1}
18 км н/о +21.4 +18.6 84 +26 +26 душно 1017.9 1015.1
22 16.09 В 1-1
{1}
19 км н/о +21.0 +17.8 82 +27 +27 душно 1017.9 1015.1
23 16.09 СВ 1-1
{1}
12 км н/о +19.7 +17.5 87 +24 +24 комфорт 1017.7 1014.9
00 17.09 В 1-1
{1}
15 км н/о +19.4 +17.4 88 +23 +23 комфорт 1017.1 1014.3
01 17.09 СВ 1-1
{1}
12 км н/о +18.8 +16.9 89 +22 +22 комфорт 1017.0 1014.2
02 17.09 штиль 0-1
{1}
14 км н/о +18.3 +16.3 88 +19 +19 1016.4 1013.6
03 17.09 С 1-2
{2}
13 км н/о +17.7 +15.3 86 +19 +19 1016.1 1013.3
04 17.09 СВ 1-2
{2}
13 км н/о +17.5 +14.9 85 +19 +19 1016.0 1013.2
05 17.09 СВ 1-2
{2}
15 км н/о +17.0 +14.6 86 +18 +18 1016.0 1013.2
06 17.09 СЗ 1
{2}
13 км н/о +18.0 +14.7 81 +20 +20 1016.2 1013.4 +17.0 +24.0
07 17.09 СЗ 1-1
{1}
22 км н/о +20.8 +15.3 71 +25 +25 комфорт 1016.2 1013.4
08 17.09 С 1-1
{2}
28 км н/о +23.0 +15.3 62 +27 +27 душно 1016.4 1013.6
09 17.09 С 1-2
{2}
40 км н/о +25.2 +15.8 56 +28 +28 жарко 1016.4 1013.6
10 17.09 СЗ 1-2
{2}
40 км н/о +27.0 +15.1 48 +30 +30 душно 1016.1 1013.3
11 17.09 З 1-3
{3}
19 км н/о +29.4 +15.1 42 +32 +32 душно 1015.5 1012.8
12 17.09 ЮЗ 2-2
{3}
19 км н/о +30.9 +15.3 39 +33 +33 душно 1015.0 1012.3
13 17.09 Ю 3-3
{4}
17 км н/о +29.4 +19.1 54 +35 +35 очень
душно
1014.4 1011.7
14 17.09 Ю 3-4
{5}
18 км н/о +28.0 +17.5 53 +32 +32 душно 1013.8 1011.1
15 17.09 Ю 3-4
{5}
45 км н/о +27.7 +16.3 50 +31 +31 душно 1013.6 1010.9
16 17.09 ЮВ 2-3
{4}
28 км н/о +26.4 +18.3 61 +31 +31 душно 1013.5 1010.8
17 17.09 Ю 2-3
{3}
30 км н/о +24.8 +18.3 67 +29 +29 душно 1013.5 1010.7
18 17.09 Ю 2
{6}
29 км н/о +22.9 +19.7 82 +29 +29 очень
душно
1013.6 1010.8 +18.0 +31.3
19 17.09 Ю 1-2
{2}
21 км н/о +22.3 +19.7 85 +28 +28 душно 1014.0 1011.2
20 17.09 Ю 1-2
{2}
18 км н/о +21.9 +19.6 87 +27 +27 душно 1014.1 1011.3
21 17.09 ЮЗ 1-2
{2}
19 км н/о +21.4 +17.8 80 +26 +26 душно 1014.2 1011.4
22 17.09 ЮВ 1-1
{1}
18 км н/о +21.3 +17.9 81 +25 +25 комфорт 1014.4 1011.6
23 17.09 ЮВ 2-2
{2}
15 км н/о +21.0 +18.6 86 +26 +26 душно 1014.4 1011.6
00 18.09 ЮВ 1-1
{2}
13 км н/о +20.2 +18.3 89 +25 +25 комфорт 1014.5 1011.7
01 18.09 В 1-1
{1}
8000 м н/о +19.9 +18.0 89 +24 +24 комфорт 1014.2 1011.4
02 18.09 СВ 1-1
{2}
6000 м н/о +19.4 +17.7 90 +23 +23 комфорт 1014.0 1011.2
03 18.09 СВ 1-2
{2}
6000 м н/о +18.3 +17.3 94 +20 +20 1014.0 1011.2
04 18.09 С 2-2
{2}
5000 м н/о +18.2 +17.2 94 +19 +19 1013.8 1011.0
05 18.09 С 2-2
{3}
5000 м н/о +18.3 +17.5 95 +20 +20 1013.6 1010.8
06 18.09 С 2
{4}
7000 м н/о +18.4 +17.4 94 +20 +20 1013.8 1011.0 +18.1 +22.9
07 18.09 С 2-3
{3}
14 км н/о +20.1 +17.3 84 +24 +24 комфорт 1014.4 1011.6
08 18.09 С 2-3
{3}
19 км н/о +21.8 +16.1 70 +26 +26 душно 1014.9 1012.1
09 18.09 С 1-2
{2}
19 км н/о +22.7 +17.4 72 +28 +28 душно 1015.2 1012.4
10 18.09 СВ 1-1
{2}
18 км н/о +24.9 +17.6 64 +29 +29 душно 1015.4 1012.6
11 18.09 СЗ 1-2
{3}
19 км н/о +26.3 +16.8 56 +30 +30 душно 1015.3 1012.5
12 18.09 ЮЗ 1-2
{3}
18 км н/о +27.9 +16.8 51 +32 +32 душно 1015.0 1012.3
13 18.09 Ю 2-4
{4}
14 км н/о +27.2 +18.8 60 +32 +32 очень
душно
1014.6 1011.9
14 18.09 Ю 3-4
{4}
14 км н/о +26.0 +19.6 68 +32 +32 очень
душно
1014.6 1011.8
15 18.09 Ю 3-4
{4}
13 км н/о +24.8 +19.0 70 +30 +30 душно 1014.3 1011.5
16 18.09 Ю 3-4
{4}
16 км н/о +25.6 +19.5 69 +31 +31 очень
душно
1014.3 1011.5
17 18.09 Ю 2-3
{3}
15 км н/о +23.7 +19.8 79 +29 +29 душно 1014.5 1011.7
18 18.09 ЮЗ 2
{5}
10 км 8/8 300 м
[]
+22.8 +20.1 85 +29 +29 очень
душно
1015.7 1012.9 +18.4 +28.8
19 18.09 Ю 1 9000 м 8/8
[]
+22.6 +20.3 87 +29 +29 очень
душно
1016.0 1013.2
20 18.09 З 2 7000 м 9/5 330 м
[]
+22.3 +20.6 90 +29 +29 очень
душно
1016.8 1014.0
21 18.09 СЗ 3
{8}
15 км 10/0 2000 м
[]
+22.1 +19.1 83 +28 +28 душно 1016.3 1013.5
22 18.09 С 4 55 км 9/9
[]
+22.2 +12.7 55 +25 +25 комфорт 1015.4 1012.6
23 18.09 С 3-3
{5}
55 км 10/10
[]
+21.8 +11.8 53 +24 +24 комфорт 1015.4 1012.6
00 19.09 СЗ 2-2
{3}
55 км 10/0
[]
+21.0 +11.6 55 +24 +24 комфорт 1016.1 1013.3
01 19.09 СЗ 2-2
{3}
55 км 8/8
[]
+20.8 +11.1 54 +24 +24 комфорт 1015.9 1013.1
02 19.09 С 2-4
{4}
55 км н/о +20.4 +10.5 53 +23 +23 комфорт 1015.7 1012.9
03 19.09 С 1-1
{3}
55 км н/о +18.6 +10.4 59 +21 +21 комфорт 1015.5 1012.7
04 19.09 С 2-2
{3}
55 км н/о +18.8 +9.6 55 +20 +20 1015.5 1012.7
05 19.09 СЗ 2-3
{3}
55 км н/о +17.0 +9.7 62 +17 +17 1015.8 1012.9
06 19.09 С 2
{6}
45 км н/о +17.8 +8.6 55 +19 +19 1015.9 1013.1 +17.0 +22.8
07 19.09 С 3-4
{4}
60 км н/о +19.2 +8.8 51 +20 +20 1016.2 1013.4
08 19.09 СЗ 4-4
{4}
60 км 10/10
[]
+21.0 +9.6 48 +23 +23 комфорт 1016.6 1013.8
09 19.09 С 4-5
{5}
45 км 9/0
[]
+20.3 +8.9 48 +22 +22 комфорт 1017.1 1014.3
10 19.09 С 3-4
{5}
40 км н/о +22.1 +9.6 45 +24 +24 комфорт 1017.1 1014.3
11 19.09 СЗ 3-4
{4}
35 км н/о +24.8 +10.3 40 +26 +26 жарко 1016.8 1014.0
12 19.09 СЗ 2-3
{4}
40 км н/о +26.1 +11.1 39 +27 +27 жарко 1016.5 1013.7
13 19.09 СЗ 2-3
{3}
60 км н/о +27.2 +11.2 37 +28 +28 жарко 1016.0 1013.2
14 19.09 СЗ 2-5
{5}
35 км 10/10
[]
+28.7 +10.8 33 +29 +29 жарко 1015.6 1012.9
15 19.09 СЗ 2-4
{4}
40 км н/о +28.0 +11.1 35 +29 +29 жарко 1015.6 1012.9
16 19.09 С 1-2
{3}
55 км н/о +26.8 +11.3 38 +28 +28 жарко 1015.8 1013.0
17 19.09 С 1-2
{2}
55 км н/о +27.3 +10.9 36 +28 +28 жарко 1016.0 1013.2
18 19.09 Ю 1
{4}
55 км 10/0
[]
+24.3 +14.1 53 +27 +27 жарко 1016.8 1014.0 +17.8 +29.0
19 19.09 ЮЗ 2-2
{3}
50 км н/о +22.4 +14.8 62 +26 +26 жарко 1017.8 1015.0
20 19.09 З 2-2
{3}
55 км н/о +21.6 +13.8 61 +24 +24 комфорт 1018.5 1015.7
21 19.09 СЗ 1-2
{2}
60 км н/о +21.2 +11.2 53 +23 +23 комфорт 1019.1 1016.3
22 19.09 С 1-2
{2}
55 км н/о +20.7 +10.8 53 +24 +24 комфорт 1019.4 1016.6
23 19.09 С 2-2
{2}
55 км н/о +20.3 +10.4 53 +23 +23 комфорт 1019.5 1016.7
00 20.09 С 2
{5}
60 км н/о +20.0 +10.1 53 +22 +22 комфорт 1019.7 1016.9
01 20.09 С 1-2
{3}
55 км н/о +19.5 +10.2 55 +22 +22 комфорт 1019.6 1016.8
02 20.09 СВ 2-2
{2}
60 км н/о +18.9 +9.4 54 +20 +20 1019.6 1016.8
03 20.09 С 2-2
{2}
60 км н/о +18.3 +10.4 60 +19 +19 1019.6 1016.8
04 20.09 СВ 2-2
{3}
40 км н/о +18.1 +10.5 61 +19 +19 1019.4 1016.6
05 20.09 С 2-3
{3}
19 км н/о +17.9 +11.7 67 +19 +19 1019.6 1016.7
06 20.09 С 3
{5}
11 км 10/10 1000 м
[]
+18.4 +11.7 65 +19 +19 1020.1 1017.3 +17.7 +24.3
07 20.09 С 1-2
{2}
8000 м н/о +20.0 +14.8 72 +23 +23 комфорт 1020.4 1017.6
08 20.09 СВ 1-2
{2}
18 км н/о +23.6 +17.3 68 +27 +27 жарко 1020.9 1018.1
09 20.09 В 2-3
{3}
19 км н/о +24.8 +16.8 61 +28 +28 жарко 1021.2 1018.4
10 20.09 В 2-3
{3}
19 км н/о +26.0 +15.4 52 +29 +29 душно 1021.1 1018.3
11 20.09 В 2-3
{3}
50 км 8/1 1260 м
[]
+26.6 +15.3 50 +29 +36 жарко 1020.8 1018.0
12 20.09 Ю 3-4
{5}
19 км н/о +27.7 +16.6 51 +31 +31 душно 1020.5 1017.7
13 20.09 Ю 3-5
{5}
19 км н/о +28.0 +16.3 49 +31 +31 душно 1020.0 1017.2
14 20.09 Ю 4-5
{5}
19 км н/о +27.8 +16.4 50 +31 +31 душно 1019.5 1016.7
15 20.09 Ю 4-5
{5}
26 км н/о +27.8 +15.5 47 +31 +31 душно 1019.1 1016.3
16 20.09 ЮВ 4-5
{6}
30 км н/о +26.3 +15.4 51 +29 +29 жарко 1018.8 1016.0
17 20.09 ЮВ 4-6
{6}
45 км н/о +24.5 +16.2 60 +28 +28 душно 1018.8 1016.0
18 20.09 ЮВ 4
{11}
35 км н/о +22.9 +16.4 67 +28 +28 душно 1018.8 1016.0 +18.4 +28.4
19 20.09 В 2-2
{5}
40 км н/о +22.3 +15.6 66 +26 +26 жарко 1019.4 1016.6
20 20.09 В 2-2
{2}
50 км н/о +22.3 +13.1 56 +25 +25 комфорт 1020.0 1017.2
21 20.09 В 2-3
{3}
60 км н/о +21.7 +12.0 54 +24 +24 комфорт 1019.9 1017.1
22 20.09 В 1-2
{2}
55 км н/о +20.4 +11.9 58 +23 +23 комфорт 1019.8 1017.0
23 20.09 СВ 1-1
{2}
50 км н/о +18.9 +11.9 64 +21 +21 комфорт 1019.7 1016.9
00 21.09 СВ 1-2
{2}
55 км н/о +17.9 +12.1 69 +19 +19 1019.9 1017.0
01 21.09 СВ 1-1
{2}
45 км н/о +17.6 +12.1 70 +19 +19 1019.7 1016.8
02 21.09 СВ 2-2
{2}
50 км н/о +17.4 +12.3 72 +18 +18 1019.5 1016.6
03 21.09 В 2
{6}
50 км н/о +19.9 +12.6 63 +22 +22 комфорт 1018.9 1016.1
04 21.09 В 2 55 км 9/8 1410 м
[]
+19.9 +12.9 64 +22 +22 комфорт 1018.5 1015.7
05 21.09 В 2 50 км 9/9 1500 м
[]
+20.5 +12.7 61 +23 +23 комфорт 1018.2 1015.4
06 21.09 СВ 2
{5}
50 км н/о +20.6 +12.3 59 +24 +24 комфорт 1018.3 1015.5 +17.3 +22.9
07 21.09 В 3-4
{4}
50 км н/о +21.5 +12.3 56 +24 +24 комфорт 1017.9 1015.1
08 21.09 В 3 50 км 8/8 1500 м
[]
+22.2 +13.3 57 +25 +26 комфорт 1018.3 1015.5
09 21.09 В 3
{9}
40 км 9/9 1000 м
[]
+22.9 +12.8 53 +26 +28 жарко 1018.7 1015.9
10 21.09 В 4 20 км слаб. дождь 10/10 1260 м
[]
+21.7 +14.6 64 +25 +25 комфорт 1018.6 1015.8 0.0
11 21.09 В 7 19 км слаб. дождь 10/3 1470 м
[]
+20.2 +14.6 70 +22 +23 комфорт 1017.5 1014.7 0.4
12 21.09 В 4
{14}
40 км слаб. дождь 10/10 1000 м
[]
+20.1 +15.1 73 +23 +24 комфорт 1016.6 1013.8 0.6
13 21.09 В 2-3
{6}
10 км дождь 10/10 1500 м
[]
+19.2 +15.9 81 +21 +21 комфорт 1017.6 1014.8 1
14 21.09 В 3-4
{4}
11 км слаб. дождь 10/10 1500 м
[]
+18.2 +16.0 87 +19 +19 1016.7 1013.9
15 21.09 В 5-14
{14}
10 км дождь 10/0 2000 м
[]
+18.0 +15.6 86 +18 +18 1015.2 1012.4 2
16 21.09 В 6-8
{9}
8000 м слаб. дождь 10/10
[]
+18.5 +15.7 84 +19 +19 1014.8 1012.0
17 21.09 В 6-8
{9}
9000 м слаб. дождь 10/10
[]
+18.6 +15.3 81 +19 +19 1014.9 1012.1 1
18 21.09 В 5
{14}
28 км 9/0
[]
+18.2 +15.1 82 +18 +18 1013.4 1010.6 +18.0 +23.1 0.2
19 21.09 В 4-6
{7}
40 км н/о +18.3 +15.0 81 +19 +19 1013.5 1010.7
20 21.09 В 4-6
{7}
45 км н/о +18.8 +14.1 74 +20 +20 1013.7 1010.9 0.2
21 21.09 В 3-5
{6}
50 км н/о +18.9 +14.2 74 +20 +20 1013.3 1010.5 0.2
22 21.09 В 3-4
{5}
45 км н/о +19.0 +14.7 76 +21 +21 комфорт 1013.4 1010.6
23 21.09 В 3-4
{5}
40 км н/о +19.0 +15.3 79 +21 +21 комфорт 1013.3 1010.5
00 22.09 В 2-3
{4}
35 км н/о +19.0 +15.5 80 +21 +21 комфорт 1013.6 1010.8
01 22.09 СВ 2 35 км 8/8 1500 м
[]
+18.9 +15.6 81 +21 +21 комфорт 1013.4 1010.6
02 22.09 СЗ 1-1
{2}
30 км 9/9 2000 м
[]
+18.0 +15.6 86 +19 +19 1013.1 1010.3
03 22.09 С 2-2
{2}
35 км 9/9 1500 м
[]
+18.2 +16.0 87 +19 +19 1012.5 1009.7
04 22.09 С 1-2
{2}
30 км 10/10 1500 м
[]
+18.6 +16.4 87 +21 +21 комфорт 1012.4 1009.6
05 22.09 В 3 9000 м слаб. дождь 10/10 1200 м
[]
+19.0 +17.5 91 +21 +21 комфорт 1012.6 1009.8 0.4
06 22.09 В 3
{9}
6000 м слаб. дождь 10/10 1000 м
[]
+18.9 +17.9 94 +21 +21 комфорт 1012.5 1009.7 +17.6 +19.8 2
07 22.09 В 2 35 км 10/6 1320 м
[]
+19.7 +18.2 91 +23 +23 комфорт 1012.5 1009.7 0.2
08 22.09 В 3 50 км 10/8 1170 м
[]
+20.4 +18.0 86 +24 +25 комфорт 1012.7 1009.9
09 22.09 В 3
{7}
28 км 10/10 1000 м
[]
+21.2 +17.4 79 +25 +25 комфорт 1013.1 1010.3 0.2
10 22.09 В 2-3
{4}
50 км 10/10 1300 м
[]
+22.1 +17.7 76 +27 +27 душно 1012.9 1010.1
11 22.09 В 2 45 км 9/9 1260 м
[]
+23.6 +17.1 67 +27 +28 жарко 1012.4 1009.6
12 22.09 В 2-4
{4}
45 км 9/9 1000 м
[]
+24.3 +17.1 64 +28 +32 душно 1012.0 1009.2
13 22.09 В 2-4
{4}
50 км 10/10 1230 м
[]
+24.8 +17.0 62 +29 +29 душно 1011.6 1008.8
14 22.09 ЮВ 2-2
{4}
19 км слаб. дождь 10/10 1050 м
[]
+23.5 +18.2 72 +28 +28 душно 1011.5 1008.7 0.0
15 22.09 ЮВ 1-2
{3}
40 км 10/10 1000 м
[]
+23.3 +19.0 77 +30 +30 очень
душно
1011.3 1008.5 0.2
16 22.09 ЮВ 3 19 км 10/8 1080 м
[]
+23.6 +18.5 73 +28 +28 душно 1011.3 1008.5
17 22.09 ЮВ 3 35 км 10/10 1110 м
[]
+23.0 +18.3 75 +29 +29 очень
душно
1011.7 1008.9

 

Местоположение метеостанции Истр (Франция): широта 43.52 долгота 4.92 высота над уровнем моря 24 м.

В архиве по умолчанию представлена погода в Истре за последнюю неделю. Архивные данные за месяц целиком и за предыдущие месяцы, начиная с января 2011 года, Вы можете получить, выбрав интересующий диапазон дат из раскрывающегося списка и нажав кнопку "Ввод!".


*Определитесь, кто Вы:
робот инопланетянин человек

Внимание! Время в таблицах - всемирное. Для получения местного времени необходимо прибавить поправку, которая равна 1 ч.

Смотрите также архив погоды в соседних городах и на ближайших метеорологических станциях:

Погода в Салон-де-Провансе (Франция) (17 км)
Погода на Ла Куроне (Франция) (24 км)
Погода в Мариньяне (Франция) (26 км)
Погода в Авиньон (Франция) (43 км)
Погода в Ниме (Франция) (48 км)
Погода в Ним аэропорту (Франция) (57 км)
Погода в Карпентрасе (Франция) (63 км)
Погода в Ла-Сьоте (Франция) (65 км)
Погода в Оранже (Франция) (68 км)
Погода в Монпелье (Франция) (77 км)

Пояснения к столбцам:

Ветер - указаны скорость ветра в м/с - средняя за 10 мин, порывы в срок и между сроками (в фигурных скобках) и направление, откуда дует ветер: С - северный, СВ - северо-восточный, В - восточный, ЮВ - юго-восточный, Ю - южный, ЮЗ - юго-западный, З - западный, СЗ - северо-западный.
Видимость - горизонтальная дальность видимости в метрах или километрах. При видимости от 1 до 10 км при отсутствии осадков обычно наблюдается дымка, при ухудшении видимости до 1 км и менее - туман. В сухую погоду видимость может ухудшаться дымом, пылью или мглою.
Явления - указаны атмосферные явления, наблюдавшиеся в срок или в последний час перед сроком; фигурными скобками обозначены явления, наблюдавшиеся между сроками (за 1-3 часа до срока); квадратными скобками обозначены град или гололедные отложения с указанием их диаметра в мм.
Облачность - указаны через наклонную черту общая и нижняя облачность в баллах и высота нижней границы облаков в метрах; квадратными скобками обозначены формы облаков: Ci - перистые, Cs - перисто-слоистые, Cc - перисто-кучевые, Ac - высококучевые, As - высокослоистые, Sc - слоисто-кучевые, Ns - слоисто-дождевые, Cu - кучевые, Cb - кучево-дождевые. Подробнее классификацию облаков см. в Атласе облаков (PDF).
T - Температура воздуха - температура, измеренная на высоте 2 м над землей.
Td - Температура точки росы - температура, при понижении до которой содержащийся в воздухе водяной пар достигнет насыщения.
f - Относительная влажность воздуха - влажноcть воздуха, измеренная на высоте 2 м над землей.
Te - Эффективная температура - температура, которую ощущает одетый по сезону человек в тени. Характеристика душности погоды. При расчете учитывается влияние влажности воздуха и скорости ветра на теплоощущения человека.
Tes - Эффективная температура на солнце - температура, которую ощущает человек, с поправкой на солнечный нагрев. Характеристика знойности погоды. Зависит от высоты солнца над горизонтом, облачности и скорости ветра. Ночью, в пасмурную погоду, а также при ветре 12 м/с и более поправка равна нулю.
P - Атмосферное давление - приведенное к уровню моря атмосферное давление.
Po - Атмосферное давление - измеренное на уровне метеостанции атмосферное давление.
Tmin - Минимальная температура - минимум температуры воздуха на высоте 2 м над землей.
Tmax - Максимальная температура - максимум температуры воздуха на высоте 2 м над землей.
R - Количество осадков - Количество выпавших осадков за период времени, мм. При наведении курсора мыши на число - период времени, за который выпало указанное количество осадков.
R24 - Количество осадков - Количество выпавших осадков за 24 часа, мм.
S - Снежный покров - Высота снежного покрова, см. При наведении курсора мыши на число - состояние снежного покрова и степень покрытия местности в баллах.